N410VE UMGG-EYVI

Flight info

Callsign N410VE
Flight time N/A
Altitude 20000
Route DOZAL M996 DUKAT
Aircraft C208/L-V/N

Departure

Time N/A
Airport Gomel Airport (UMGG)

Arrival

Time 2026-04-30 18:19
Airport Vilnius International Airport (EYVI)
Time Latitude Longitude Altitude Speed Heading
2026-04-30 17:39 53.57186 27.52763 20234 ft 179 kts 316°
2026-04-30 17:41 53.62783 27.38985 20230 ft 178 kts 317°
2026-04-30 17:42 53.64178 27.35540 20233 ft 178 kts 317°
2026-04-30 17:42 53.66269 27.30365 20233 ft 178 kts 316°
2026-04-30 17:43 53.67662 27.26912 20234 ft 178 kts 316°
2026-04-30 17:44 53.69752 27.21725 20244 ft 178 kts 316°
2026-04-30 17:44 53.71844 27.16521 20246 ft 179 kts 316°
2026-04-30 17:46 53.75338 27.07802 20249 ft 180 kts 316°
2026-04-30 17:47 53.78118 27.00845 20245 ft 178 kts 317°
2026-04-30 17:48 53.80893 26.93881 20246 ft 179 kts 317°
2026-04-30 17:48 53.82963 26.88673 20245 ft 178 kts 317°
2026-04-30 17:49 53.85735 26.81681 20244 ft 179 kts 317°
2026-04-30 17:50 53.88497 26.74698 20244 ft 178 kts 317°
2026-04-30 17:51 53.90776 26.69774 20067 ft 181 kts 324°
2026-04-30 17:52 53.93360 26.64880 19711 ft 190 kts 323°
2026-04-30 17:53 53.97825 26.56397 19114 ft 194 kts 322°
2026-04-30 17:54 54.01429 26.49529 18546 ft 195 kts 322°
2026-04-30 17:55 54.05010 26.42688 17775 ft 193 kts 322°
2026-04-30 17:56 54.08585 26.35842 17024 ft 193 kts 321°
2026-04-30 17:57 54.11250 26.30723 16472 ft 192 kts 321°
2026-04-30 17:58 54.13899 26.25624 15904 ft 191 kts 321°
2026-04-30 17:59 54.17420 26.18836 15192 ft 191 kts 320°
2026-04-30 18:00 54.20924 26.12055 14501 ft 190 kts 320°
2026-04-30 18:00 54.23536 26.06991 13975 ft 188 kts 319°
2026-04-30 18:01 54.25258 26.03647 13591 ft 187 kts 319°
2026-04-30 18:02 54.27823 25.98656 13031 ft 185 kts 319°
2026-04-30 18:02 54.30359 25.93712 12480 ft 185 kts 319°
2026-04-30 18:03 54.32832 25.88875 12274 ft 172 kts 320°
2026-04-30 18:04 54.35180 25.84412 12266 ft 167 kts 321°
2026-04-30 18:05 54.38273 25.78513 12263 ft 166 kts 321°
2026-04-30 18:06 54.41378 25.72580 12074 ft 171 kts 321°
2026-04-30 18:07 54.44598 25.66407 11488 ft 176 kts 320°
2026-04-30 18:08 54.46969 25.61488 10961 ft 184 kts 301°
2026-04-30 18:09 54.47325 25.52590 9650 ft 187 kts 280°
2026-04-30 18:10 54.47506 25.43787 8162 ft 183 kts 279°
2026-04-30 18:11 54.47215 25.35199 6741 ft 190 kts 244°
2026-04-30 18:11 54.44169 25.30774 5640 ft 186 kts 241°
2026-04-30 18:12 54.43841 25.24868 4535 ft 163 kts 297°
2026-04-30 18:13 54.44676 25.21289 3815 ft 160 kts 294°
2026-04-30 18:13 54.46489 25.17690 2831 ft 156 kts 344°
2026-04-30 18:14 54.48831 25.18565 2641 ft 140 kts 14°
2026-04-30 18:15 54.51408 25.20283 2643 ft 128 kts 15°
2026-04-30 18:15 54.53882 25.21982 2509 ft 128 kts 15°
2026-04-30 18:16 54.55555 25.23139 2148 ft 131 kts 16°
2026-04-30 18:16 54.57252 25.24310 1775 ft 132 kts 17°
2026-04-30 18:17 54.58109 25.24900 1582 ft 132 kts 17°
2026-04-30 18:17 54.58959 25.25490 1383 ft 131 kts 18°
2026-04-30 18:17 54.60416 25.26502 1108 ft 98 kts 18°
2026-04-30 18:18 54.61036 25.26927 950 ft 95 kts 19°
2026-04-30 18:18 54.61633 25.27344 814 ft 91 kts 15°
2026-04-30 18:18 54.62219 25.27745 681 ft 89 kts 17°
2026-04-30 18:18 54.62755 25.28116 610 ft 74 kts 17°
2026-04-30 18:19 54.63168 25.28397 604 ft 54 kts 26°
2026-04-30 18:19 54.63355 25.28537 608 ft 28 kts 17°
2026-04-30 18:19 54.63445 25.28448 610 ft 17 kts 304°
2026-04-30 18:19 54.63495 25.28408 613 ft 0 kts 352°
2026-04-30 18:20 54.63496 25.28407 613 ft 1 kts 351°
2026-04-30 18:20 54.63504 25.28405 617 ft 0 kts 351°
2026-04-30 18:20 54.63511 25.28402 615 ft 3 kts 338°
2026-04-30 18:21 54.63549 25.28386 612 ft 8 kts 353°
2026-04-30 18:21 54.63614 25.28408 616 ft 11 kts 23°
2026-04-30 18:21 54.63697 25.28468 621 ft 15 kts 22°
2026-04-30 18:21 54.63801 25.28539 627 ft 18 kts 21°
2026-04-30 18:22 54.63902 25.28608 638 ft 2 kts 21°
2026-04-30 18:22 54.63915 25.28617 635 ft 3 kts 21°
2026-04-30 18:22 54.63944 25.28637 637 ft 6 kts 22°
2026-04-30 18:23 54.63997 25.28676 640 ft 10 kts 24°
2026-04-30 18:23 54.64080 25.28705 644 ft 15 kts 354°
2026-04-30 18:23 54.64198 25.28685 647 ft 20 kts 356°
2026-04-30 18:23 54.64340 25.28663 649 ft 16 kts 353°
2026-04-30 18:24 54.64445 25.28633 649 ft 10 kts 352°
2026-04-30 18:24 54.64510 25.28593 649 ft 10 kts 286°
2026-04-30 18:24 54.64489 25.28441 642 ft 12 kts 257°
2026-04-30 18:25 54.64516 25.28384 641 ft 5 kts 349°
2026-04-30 18:25 54.64532 25.28377 641 ft 0 kts 344°